TimeCDT,TemperatureF,Dew PointF,Humidity,Sea Level PressureIn,VisibilityMPH,Wind Direction,Wind SpeedMPH,Gust SpeedMPH,PrecipitationIn,Events,Conditions,WindDirDegrees,DateUTC
12:15 AM,48.0,41.9,79,30.00,10.0,South,4.6,-,N/A,,Clear,190,2013-10-21 05:15:00
12:35 AM,48.6,41.9,78,30.00,10.0,South,4.6,-,N/A,,Clear,180,2013-10-21 05:35:00
12:55 AM,48.4,41.5,77,30.00,10.0,South,4.6,-,N/A,,Clear,180,2013-10-21 05:55:00
1:15 AM,47.3,41.4,80,30.00,10.0,South,4.6,-,N/A,,Clear,180,2013-10-21 06:15:00
1:35 AM,47.5,41.4,79,30.00,10.0,South,4.6,-,N/A,,Clear,190,2013-10-21 06:35:00
1:55 AM,47.7,41.7,80,30.00,10.0,South,5.8,-,N/A,,Clear,190,2013-10-21 06:55:00
2:15 AM,47.8,41.7,79,30.00,10.0,South,5.8,-,N/A,,Clear,190,2013-10-21 07:15:00
2:35 AM,48.0,41.5,78,30.00,10.0,South,4.6,-,N/A,,Clear,190,2013-10-21 07:35:00
2:55 AM,48.0,41.5,78,30.01,10.0,South,4.6,-,N/A,,Clear,180,2013-10-21 07:55:00
3:15 AM,48.0,41.4,78,30.01,10.0,South,4.6,-,N/A,,Clear,180,2013-10-21 08:15:00
3:35 AM,48.2,41.5,78,30.01,10.0,South,4.6,-,N/A,,Clear,180,2013-10-21 08:35:00
3:55 AM,47.5,41.4,79,30.01,10.0,South,4.6,-,N/A,,Clear,180,2013-10-21 08:55:00
4:15 AM,46.2,41.0,82,30.01,10.0,South,3.5,-,N/A,,Clear,180,2013-10-21 09:15:00
4:35 AM,45.1,40.3,83,30.01,10.0,South,4.6,-,N/A,,Clear,180,2013-10-21 09:35:00
4:55 AM,44.6,40.3,85,30.01,10.0,South,5.8,-,N/A,,Clear,190,2013-10-21 09:55:00
5:15 AM,46.4,41.7,84,30.01,10.0,South,5.8,-,N/A,,Clear,190,2013-10-21 10:15:00
5:35 AM,45.7,41.5,85,30.01,10.0,South,5.8,-,N/A,,Clear,190,2013-10-21 10:35:00
5:55 AM,45.3,41.4,86,30.01,10.0,South,5.8,-,N/A,,Clear,180,2013-10-21 10:55:00
6:15 AM,45.5,41.5,86,30.01,10.0,South,4.6,-,N/A,,Clear,190,2013-10-21 11:15:00
6:35 AM,45.0,41.0,86,30.02,10.0,South,5.8,-,N/A,,Clear,190,2013-10-21 11:35:00
6:55 AM,45.9,41.9,86,30.03,10.0,South,3.5,-,N/A,,Clear,180,2013-10-21 11:55:00
7:15 AM,40.6,40.6,100,30.02,10.0,Calm,Calm,-,N/A,,Clear,0,2013-10-21 12:15:00
7:35 AM,40.8,40.8,100,30.02,10.0,Calm,Calm,-,N/A,,Clear,0,2013-10-21 12:35:00
7:55 AM,43.2,43.2,100,30.03,10.0,Calm,Calm,-,N/A,,Scattered Clouds,0,2013-10-21 12:55:00
8:15 AM,50.0,44.6,82,30.03,10.0,South,4.6,-,N/A,,Mostly Cloudy,180,2013-10-21 13:15:00
8:35 AM,50.7,45.5,82,30.03,10.0,South,3.5,-,N/A,,Overcast,190,2013-10-21 13:35:00
8:55 AM,53.6,45.1,73,30.03,10.0,SSW,4.6,-,N/A,,Mostly Cloudy,200,2013-10-21 13:55:00
9:15 AM,55.6,44.8,67,30.03,10.0,SSW,5.8,-,N/A,,Mostly Cloudy,210,2013-10-21 14:15:00
9:35 AM,57.6,45.1,63,30.02,10.0,SSW,6.9,-,N/A,,Scattered Clouds,210,2013-10-21 14:35:00
9:55 AM,58.8,45.3,61,30.02,10.0,SSW,6.9,-,N/A,,Mostly Cloudy,210,2013-10-21 14:55:00
10:15 AM,60.4,45.9,59,30.03,10.0,SW,8.1,-,N/A,,Scattered Clouds,230,2013-10-21 15:15:00
10:35 AM,61.3,44.2,53,30.03,10.0,SW,10.4,-,N/A,,Scattered Clouds,220,2013-10-21 15:35:00
10:55 AM,62.4,45.1,53,30.03,10.0,SW,10.4,-,N/A,,Mostly Cloudy,230,2013-10-21 15:55:00
11:15 AM,64.8,46.6,52,30.02,10.0,SSW,10.4,-,N/A,,Mostly Cloudy,210,2013-10-21 16:15:00
11:35 AM,64.6,45.7,50,30.02,10.0,SW,10.4,-,N/A,,Overcast,220,2013-10-21 16:35:00
11:55 AM,65.7,46.8,50,30.01,10.0,WSW,8.1,-,N/A,,Overcast,250,2013-10-21 16:55:00
12:15 PM,64.9,46.2,51,30.01,10.0,WSW,9.2,-,N/A,,Overcast,240,2013-10-21 17:15:00
12:35 PM,63.9,46.4,53,30.00,10.0,SW,9.2,-,N/A,,Overcast,220,2013-10-21 17:35:00
12:55 PM,64.4,47.3,54,30.00,10.0,SW,5.8,-,N/A,,Overcast,220,2013-10-21 17:55:00
1:15 PM,64.8,47.1,53,29.98,10.0,WSW,6.9,-,N/A,,Overcast,250,2013-10-21 18:15:00
1:35 PM,65.8,46.6,50,29.98,10.0,WSW,10.4,-,N/A,,Mostly Cloudy,240,2013-10-21 18:35:00
1:55 PM,66.7,46.0,47,29.97,10.0,WSW,8.1,-,N/A,,Scattered Clouds,250,2013-10-21 18:55:00
2:15 PM,67.3,47.3,49,29.97,10.0,WSW,8.1,-,N/A,,Clear,250,2013-10-21 19:15:00
2:35 PM,66.0,47.3,51,29.97,10.0,SSW,6.9,-,N/A,,Scattered Clouds,210,2013-10-21 19:35:00
2:55 PM,66.2,47.8,52,29.96,10.0,SW,6.9,-,N/A,,Mostly Cloudy,220,2013-10-21 19:55:00
3:15 PM,66.4,48.2,52,29.97,10.0,SSW,8.1,-,N/A,,Overcast,210,2013-10-21 20:15:00
3:35 PM,65.5,48.2,54,29.97,10.0,SW,8.1,-,N/A,,Overcast,220,2013-10-21 20:35:00
3:55 PM,66.4,47.8,51,29.96,10.0,SW,8.1,-,N/A,,Mostly Cloudy,220,2013-10-21 20:55:00
4:15 PM,65.3,48.2,54,29.97,10.0,SW,4.6,-,N/A,,Scattered Clouds,230,2013-10-21 21:15:00
4:35 PM,64.4,48.9,57,29.97,10.0,WSW,3.5,-,N/A,,Scattered Clouds,250,2013-10-21 21:35:00
4:55 PM,63.5,50.2,62,29.96,10.0,Calm,Calm,-,N/A,,Mostly Cloudy,0,2013-10-21 21:55:00
5:15 PM,62.4,50.9,66,29.97,10.0,WNW,3.5,-,N/A,,Overcast,300,2013-10-21 22:15:00
5:35 PM,61.9,50.9,67,29.97,7.0,Calm,Calm,-,N/A,,Overcast,0,2013-10-21 22:35:00
5:55 PM,61.7,51.1,68,29.97,10.0,Calm,Calm,-,N/A,,Overcast,0,2013-10-21 22:55:00
6:15 PM,60.1,50.9,72,29.98,10.0,NW,11.5,-,N/A,,Overcast,320,2013-10-21 23:15:00
6:35 PM,59.4,48.6,67,29.99,10.0,NNW,5.8,-,N/A,,Overcast,340,2013-10-21 23:35:00
6:55 PM,58.5,48.2,69,29.99,10.0,North,4.6,-,N/A,Rain,Light Rain,350,2013-10-21 23:55:00
7:15 PM,57.7,47.7,69,29.99,10.0,NNW,5.8,-,N/A,,Overcast,340,2013-10-22 00:15:00
7:35 PM,56.8,47.5,71,30.00,10.0,NNW,4.6,-,N/A,,Light Drizzle,330,2013-10-22 00:35:00
7:55 PM,56.3,47.5,72,30.00,10.0,NNW,5.8,-,N/A,,Light Drizzle,330,2013-10-22 00:55:00
8:15 PM,56.1,47.7,73,30.01,10.0,WNW,3.5,-,N/A,,Overcast,290,2013-10-22 01:15:00
8:35 PM,55.6,47.8,75,30.01,10.0,Calm,Calm,-,N/A,,Overcast,0,2013-10-22 01:35:00
8:55 PM,55.4,47.8,76,30.02,10.0,Calm,Calm,-,N/A,,Overcast,0,2013-10-22 01:55:00
9:15 PM,55.0,47.3,75,30.03,10.0,NW,3.5,-,N/A,,Overcast,310,2013-10-22 02:15:00
9:35 PM,54.7,47.5,77,30.03,10.0,NW,4.6,-,N/A,,Overcast,310,2013-10-22 02:35:00
9:55 PM,54.7,47.3,76,30.04,10.0,NNW,4.6,-,N/A,,Overcast,330,2013-10-22 02:55:00
10:15 PM,54.3,47.3,77,30.05,10.0,NNW,8.1,-,N/A,Rain,Light Rain,330,2013-10-22 03:15:00
10:35 PM,52.9,45.7,77,30.05,10.0,North,5.8,-,N/A,,Light Drizzle,350,2013-10-22 03:35:00
10:55 PM,52.3,44.8,75,30.05,10.0,NNW,5.8,-,N/A,,Overcast,340,2013-10-22 03:55:00
11:15 PM,52.2,42.8,70,30.06,10.0,NNW,3.5,-,N/A,,Overcast,330,2013-10-22 04:15:00
11:35 PM,51.8,42.1,69,30.05,10.0,NNW,4.6,-,N/A,,Overcast,340,2013-10-22 04:35:00
11:55 PM,51.4,40.8,67,30.06,10.0,NNW,5.8,-,N/A,,Overcast,340,2013-10-22 04:55:00